Location: Unspecified
(49.2170°N, 0.0000°E)
Time: 21:16:33
(UTC+00:00)

Vanguard 3 - Pass Details

Date: 03 July 2019
Orbit: 507 x 3264 km, 33.4° (Epoch: 17 July)

Event Time Altitude Azimuth Distance (km) Brightness Sun altitude
Rises 07:03:05 0° 217° (SW) 7,112 11.6 26.6°
Reaches altitude 10° 07:08:36 10° 209° (SSW) 6,186 11.4 27.5°
Maximum altitude 07:24:31 32° 156° (SSE) 4,309 11.4 30.1°
Drops below altitude 10° 07:37:27 10° 101° (ESE) 5,052 12.7 32.2°
Sets 07:41:21 0° 92° (E) 5,703 12.6 32.9°
